Tracking 21076 objects as of 10-Aug-2020
HD Live streaming from Space Station
objects crossing your sky now
Track the most recent launched group of Starlink satellites

FLOCK 3P 67

Track FLOCK 3P 67 now!
10-day predictions
FLOCK 3P 67 is classified as:


NORAD ID: 42002
Int'l Code: 2017-008BG
Perigee: 481.9 km
Apogee: 494.2 km
Inclination: 97.4 °
Period: 94.2 minutes
Semi major axis: 6859 km
RCS: Unknown
Launch date: February 15, 2017
Source: United States (US)
Launch site: SRIHARIKOTA (SRI)
aabbcc
Your satellite tracking list
Your tracking list is empty




NASA's NSSDC Master Catalog

Two Line Element Set (TLE):
1 42002U 17008BG  20222.46851771  .00002357  00000-0  88180-4 0  9997
2 42002  97.3617 290.7240 0008962 115.5709 244.6458 15.28281997193761
Source of the keplerian elements: AFSPC